Simultaneous Nadir Overpasses (SNOs) Predictions

Prediction of SNOs between NOAA-20 and AQUA Satellite Orbit:

Table of predicted SNOs for the next 14.0 days since TLE Epoch: 1/9/2021
Index Date (NOAA-20) Time (NOAA-20) Lat,Lon (NOAA-20) SZA (NOAA-20 ) Date (AQUA) Time (AQUA) Lat,Lon (AQUA) SZA (AQUA ) Distance(km) Time Diff (sec)
1 01/10/2021 05:56:23 75.29, -32.30 119.81 01/10/2021 05:57:03 75.29, -32.25 119.76 1.48 40
2 01/10/2021 06:46:39 -76.66, 139.66 61.81 01/10/2021 06:46:03 -76.65, 139.57 61.75 2.49 36
3 01/12/2021 22:13:05 75.87, 85.31 118.78 01/12/2021 22:13:19 75.86, 85.29 118.77 0.92 14
4 01/12/2021 23:03:32 -76.72,-104.31 62.25 01/12/2021 23:02:29 -76.73,-104.27 62.21 1.08 63
5 01/15/2021 13:39:33 -75.09, 31.36 60.74 01/15/2021 13:40:38 -75.09, 31.33 60.79 1.03 65
6 01/15/2021 14:29:57 76.03,-158.39 118.18 01/15/2021 14:29:44 76.03,-158.32 118.17 2.06 13
7 01/18/2021 05:56:24 -75.30, 147.76 61.45 01/18/2021 05:57:02 -75.31, 147.81 61.50 1.82 38
8 01/18/2021 06:46:40 76.59, -40.59 117.04 01/18/2021 06:46:01 76.58, -40.64 117.08 1.43 39
9 01/20/2021 22:13:05 -75.97, -94.33 62.74 01/20/2021 22:13:17 -75.97, -94.39 62.74 1.74 12



Historial Predications of SNOs between NOAA-20 and AQUA
